TimeCST,TemperatureF,Dew PointF,Humidity,Sea Level PressureIn,VisibilityMPH,Wind Direction,Wind SpeedMPH,Gust SpeedMPH,PrecipitationIn,Events,Conditions,WindDirDegrees,DateUTC
12:14 AM,3.2,-5.8,66,30.18,10.0,Calm,Calm,-,N/A,,Scattered Clouds,0,2013-01-23 06:14:00
12:33 AM,3.2,-5.8,66,30.18,10.0,Calm,Calm,-,N/A,,Scattered Clouds,0,2013-01-23 06:33:00
12:54 AM,3.2,-4.0,72,30.17,10.0,Calm,Calm,-,N/A,,Mostly Cloudy,0,2013-01-23 06:54:00
1:14 AM,3.2,-4.0,72,30.17,10.0,Calm,Calm,-,N/A,,Overcast,0,2013-01-23 07:14:00
1:34 AM,3.2,-4.0,72,30.16,7.0,Calm,Calm,-,N/A,Snow,Light Snow,0,2013-01-23 07:34:00
1:54 AM,3.2,-4.0,72,30.16,10.0,Calm,Calm,-,N/A,,Overcast,0,2013-01-23 07:54:00
2:13 AM,3.2,-4.0,72,30.15,7.0,Calm,Calm,-,N/A,Snow,Light Snow,0,2013-01-23 08:13:00
2:34 AM,3.2,-2.2,78,30.15,10.0,South,3.5,-,N/A,Snow,Light Snow,190,2013-01-23 08:34:00
2:54 AM,3.2,-2.2,78,30.14,10.0,South,3.5,-,N/A,Snow,Light Snow,180,2013-01-23 08:54:00
3:13 AM,3.2,-2.2,78,30.14,10.0,South,3.5,-,N/A,,Overcast,190,2013-01-23 09:13:00
3:34 AM,3.2,-2.2,78,30.14,10.0,Calm,Calm,-,N/A,Snow,Light Snow,0,2013-01-23 09:34:00
3:53 AM,3.2,-0.4,85,30.14,10.0,Calm,Calm,-,N/A,Snow,Light Snow,0,2013-01-23 09:53:00
4:14 AM,3.2,-0.4,85,30.13,10.0,Calm,Calm,-,N/A,,Overcast,0,2013-01-23 10:14:00
4:34 AM,3.2,-0.4,85,30.12,10.0,Calm,Calm,-,N/A,,Overcast,0,2013-01-23 10:34:00
4:54 AM,3.2,-0.4,85,30.11,10.0,Calm,Calm,-,N/A,,Overcast,0,2013-01-23 10:54:00
5:14 AM,3.2,-0.4,85,30.11,10.0,Calm,Calm,-,N/A,Snow,Light Snow,0,2013-01-23 11:14:00
5:34 AM,3.2,-0.4,85,30.12,10.0,Calm,Calm,-,N/A,,Overcast,0,2013-01-23 11:34:00
5:54 AM,3.2,-0.4,85,30.11,10.0,Calm,Calm,-,N/A,Snow,Light Snow,0,2013-01-23 11:54:00
6:14 AM,5.0,-0.4,78,30.11,7.0,Calm,Calm,-,N/A,,Mostly Cloudy,0,2013-01-23 12:14:00
6:34 AM,5.0,-0.4,78,30.11,7.0,Calm,Calm,-,N/A,Snow,Light Snow,0,2013-01-23 12:34:00
6:54 AM,5.0,-0.4,78,30.12,10.0,Calm,Calm,-,N/A,Snow,Light Snow,0,2013-01-23 12:54:00
7:14 AM,5.0,1.4,85,30.11,7.0,Calm,Calm,-,N/A,Snow,Light Snow,0,2013-01-23 13:14:00
7:33 AM,5.0,1.4,85,30.12,5.0,West,3.5,-,N/A,Snow,Light Snow,270,2013-01-23 13:33:00
7:54 AM,6.8,1.4,79,30.13,5.0,West,4.6,-,N/A,Snow,Light Snow,270,2013-01-23 13:54:00
8:14 AM,6.8,1.4,79,30.13,7.0,West,5.8,-,N/A,Snow,Light Snow,270,2013-01-23 14:14:00
8:33 AM,8.6,1.4,73,30.12,5.0,West,5.8,-,N/A,Snow,Light Snow,280,2013-01-23 14:33:00
8:54 AM,8.6,3.2,79,30.13,10.0,West,6.9,-,N/A,Snow,Light Snow,280,2013-01-23 14:54:00
9:14 AM,8.6,1.4,73,30.13,10.0,West,9.2,-,N/A,,Clear,280,2013-01-23 15:14:00
9:34 AM,8.6,1.4,73,30.14,7.0,West,11.5,-,N/A,,Clear,280,2013-01-23 15:34:00
9:54 AM,8.6,1.4,73,30.15,0.8,WNW,13.8,19.6,N/A,Snow,Light Snow,290,2013-01-23 15:54:00
10:14 AM,10.4,1.4,67,30.16,5.0,WNW,15.0,19.6,N/A,Snow,Light Snow,300,2013-01-23 16:14:00
10:34 AM,10.4,1.4,67,30.17,5.0,NW,13.8,23.0,N/A,Snow,Light Snow,320,2013-01-23 16:34:00
10:54 AM,8.6,-0.4,67,30.19,10.0,NW,8.1,19.6,N/A,,Scattered Clouds,310,2013-01-23 16:54:00
11:14 AM,8.6,-0.4,67,30.20,10.0,NW,13.8,19.6,N/A,,Mostly Cloudy,310,2013-01-23 17:14:00
11:34 AM,8.6,-4.0,57,30.20,10.0,NW,15.0,23.0,N/A,,Scattered Clouds,320,2013-01-23 17:34:00
11:54 AM,8.6,-5.8,52,30.21,2.0,NW,13.8,26.5,N/A,Snow,Light Snow,310,2013-01-23 17:54:00
12:14 PM,8.6,-5.8,52,30.21,10.0,NW,12.7,19.6,N/A,,Clear,320,2013-01-23 18:14:00
12:34 PM,8.6,-5.8,52,30.21,10.0,NW,12.7,20.7,N/A,,Scattered Clouds,310,2013-01-23 18:34:00
12:54 PM,8.6,-7.6,48,30.21,10.0,WNW,13.8,23.0,N/A,,Scattered Clouds,300,2013-01-23 18:54:00
1:14 PM,6.8,-7.6,52,30.23,10.0,NNW,13.8,19.6,N/A,,Scattered Clouds,330,2013-01-23 19:14:00
1:34 PM,5.0,-9.4,52,30.24,10.0,NW,13.8,25.3,N/A,,Scattered Clouds,310,2013-01-23 19:34:00
1:54 PM,5.0,-11.2,47,30.25,10.0,NW,11.5,21.9,N/A,,Clear,320,2013-01-23 19:54:00
2:14 PM,3.2,-13.0,47,30.27,7.0,WNW,17.3,25.3,N/A,,Clear,300,2013-01-23 20:14:00
2:34 PM,3.2,-13.0,47,30.29,10.0,NNW,15.0,24.2,N/A,,Clear,330,2013-01-23 20:34:00
2:54 PM,3.2,-13.0,47,30.31,10.0,NNW,13.8,27.6,N/A,,Clear,330,2013-01-23 20:54:00
3:14 PM,3.2,-14.8,43,30.32,10.0,NNW,13.8,28.8,N/A,,Clear,330,2013-01-23 21:14:00
3:34 PM,3.2,-14.8,43,30.33,10.0,NW,13.8,20.7,N/A,,Clear,320,2013-01-23 21:34:00
3:54 PM,1.4,-14.8,47,30.35,10.0,NW,9.2,16.1,N/A,,Clear,310,2013-01-23 21:54:00
4:14 PM,1.4,-16.6,43,30.36,10.0,NW,8.1,-,N/A,,Clear,310,2013-01-23 22:14:00
4:34 PM,1.4,-16.6,43,30.38,10.0,NW,8.1,17.3,N/A,,Clear,310,2013-01-23 22:34:00
4:53 PM,-0.4,-16.6,46,30.40,10.0,NW,10.4,16.1,N/A,,Clear,310,2013-01-23 22:53:00
5:14 PM,-0.4,-16.6,46,30.41,10.0,NW,6.9,-,N/A,,Clear,320,2013-01-23 23:14:00
5:33 PM,-0.4,-16.6,46,30.43,10.0,NW,5.8,-,N/A,,Clear,320,2013-01-23 23:33:00
5:54 PM,-2.2,-16.6,50,30.45,10.0,NW,5.8,-,N/A,,Clear,320,2013-01-23 23:54:00
6:14 PM,-2.2,-16.6,50,30.46,10.0,NNW,3.5,-,N/A,,Clear,330,2013-01-24 00:14:00
6:33 PM,-2.2,-16.6,50,30.47,10.0,NNW,6.9,-,N/A,,Clear,330,2013-01-24 00:33:00
6:54 PM,-4.0,-16.6,55,30.48,10.0,Calm,Calm,-,N/A,,Clear,0,2013-01-24 00:54:00
7:14 PM,-4.0,-18.4,50,30.49,10.0,NNW,3.5,-,N/A,,Clear,340,2013-01-24 01:14:00
7:34 PM,-4.0,-18.4,50,30.50,10.0,North,3.5,-,N/A,,Clear,350,2013-01-24 01:34:00
7:54 PM,-5.8,-18.4,55,30.51,10.0,North,4.6,-,N/A,,Clear,350,2013-01-24 01:54:00
8:14 PM,-5.8,-18.4,55,30.52,10.0,Calm,Calm,-,N/A,,Clear,0,2013-01-24 02:14:00
8:34 PM,-5.8,-16.6,60,30.54,10.0,Calm,Calm,-,N/A,,Clear,0,2013-01-24 02:34:00
9:14 PM,-7.6,-18.4,59,30.53,10.0,North,3.5,-,N/A,,Clear,350,2013-01-24 03:14:00
9:34 PM,-7.6,-18.4,59,30.55,10.0,Calm,Calm,-,N/A,,Clear,0,2013-01-24 03:34:00
9:54 PM,-7.6,-18.4,59,30.55,10.0,North,3.5,-,N/A,,Clear,350,2013-01-24 03:54:00
10:14 PM,-7.6,-20.2,54,30.57,10.0,Calm,Calm,-,N/A,,Clear,0,2013-01-24 04:14:00
10:34 PM,-7.6,-22.0,50,30.58,10.0,Calm,Calm,-,N/A,,Clear,0,2013-01-24 04:34:00
10:54 PM,-9.4,-22.0,54,30.59,10.0,Calm,Calm,-,N/A,,Clear,0,2013-01-24 04:54:00
11:14 PM,-9.4,-22.0,54,30.60,10.0,Calm,Calm,-,N/A,,Clear,0,2013-01-24 05:14:00
11:53 PM,-9.4,-22.0,54,30.60,10.0,Calm,Calm,-,N/A,,Clear,0,2013-01-24 05:53:00